Weather History for Metropolis, IL

Change the Weather History Date:

Thursday, October 13, 2011

  Actual Average (KPAH) Record (KPAH)
Temperature  
Mean Temperature 64 °F 60 °F  
Max Temperature 69 °F 72 °F 89 °F (1989)
Min Temperature 59 °F 47 °F 27 °F (1988)
Degree Days  
Heating Degree Days 1 7  
Month to date heating degree days 69  
Since 1 July heating degree days 108  
Cooling Degree Days 0 1  
Month to date cooling degree days 24  
Year to date cooling degree days 1524  
Growing Degree Days 14 (Base 50)    
Moisture  
Dew Point 56 °F    
Average Humidity 80    
Maximum Humidity 100    
Minimum Humidity 56    
Precipitation  
Precipitation 0.02 in 0.13 in 2.17 in (1959)
Month to date precipitation 1.70  
Year to date precipitation 37.93  
Snow  
Snow 0.00 in 0.00 in 0.00 in (2002)
Month to date snowfall 0.0  
Since 1 July snowfall 0.0  
Since 1 September snowfall 0.0  
Snow Depth -    
Sea Level Pressure  
Sea Level Pressure 29.65 in    
Wind  
Wind Speed 5 mph (West)    
Max Wind Speed 12 mph    
Max Gust Speed 20 mph    
Visibility 9 miles    
Events Rain    
T = Trace of Precipitation, MM = Missing Value Source: NWS Daily Summary

Daily Weather History Graph

Daily Weather History Graph

Search for Another Location

Airport:

Trip Planner

Search our weather history database for the weather conditions in past years. The results will help you decide how hot, cold, wet, or windy it might be!

Date:

Astronomy

Oct. 13, 2011 Rise Set
Actual Time 7:00 AM CDT 6:21 PM CDT
Civil Twilight 6:34 AM CDT 6:47 PM CDT
Nautical Twilight 6:04 AM CDT 7:17 PM CDT
Astronomical Twilight 5:34 AM CDT 7:47 PM CDT
Moon 7:00 PM CDT (10/13) 8:28 AM CDT (10/13)
Length of Visible Light 12h 12m
Length of Day
11h 20m
Full, 98% of the Moon is Illuminated
Oct 13
Full
Oct 19
Last Quarter
Oct 26
New
Nov 2
First Quarter
Nov 10
Full

Hourly Weather History & Observations

Time (CDT) Temp. Dew Point Humidity Pressure Visibility Wind Dir Wind Speed Gust Speed Precip Events Conditions
12:15 AM 60.8 °F 60.8 °F 100% 29.68 in 7.0 mi SW 4.6 mph - N/A Rain Light Rain
12:35 AM 60.8 °F 60.8 °F 100% 29.68 in 7.0 mi SSW 3.5 mph - N/A   Drizzle
12:55 AM 60.8 °F 60.8 °F 100% 29.67 in 7.0 mi SW 3.5 mph - N/A   Light Drizzle
1:15 AM 60.8 °F 60.8 °F 100% 29.66 in 10.0 mi SW 4.6 mph - N/A   Overcast
1:55 AM 60.8 °F 59.0 °F 94% 29.66 in 10.0 mi Calm Calm - 0.01 in Rain Light Rain
2:15 AM 60.8 °F 59.0 °F 94% 29.66 in 10.0 mi Calm Calm - N/A   Overcast
2:35 AM 60.8 °F 59.0 °F 94% 29.65 in 10.0 mi SSW 3.5 mph - N/A Rain Light Rain
3:55 AM 59.0 °F 59.0 °F 100% 29.63 in 10.0 mi Calm Calm - N/A   Overcast
4:15 AM 59.0 °F 59.0 °F 100% 29.62 in 10.0 mi SSE 3.5 mph - N/A Rain Light Rain
4:35 AM 59.0 °F 59.0 °F 100% 29.62 in 10.0 mi Calm Calm - N/A   Overcast
4:55 AM 60.8 °F 59.0 °F 94% 29.62 in 10.0 mi Calm Calm - N/A   Overcast
5:15 AM 60.8 °F 59.0 °F 94% 29.62 in 7.0 mi Calm Calm - 0.01 in   Overcast
5:35 AM 60.8 °F 59.0 °F 94% 29.62 in 7.0 mi SW 3.5 mph - 0.01 in   Overcast
5:55 AM 60.8 °F 59.0 °F 94% 29.62 in 5.0 mi SW 4.6 mph - 0.01 in   Overcast
6:15 AM 60.8 °F 59.0 °F 94% 29.62 in 7.0 mi SW 6.9 mph - N/A   Overcast
6:35 AM 60.8 °F 59.0 °F 94% 29.62 in 5.0 mi WSW 8.1 mph - N/A   Overcast
6:55 AM 60.8 °F 59.0 °F 94% 29.62 in 7.0 mi WSW 5.8 mph - N/A   Overcast
7:15 AM 60.8 °F 59.0 °F 94% 29.62 in 7.0 mi West 3.5 mph - N/A   Overcast
7:35 AM 60.8 °F 59.0 °F 94% 29.63 in 10.0 mi West 5.8 mph - N/A   Overcast
7:55 AM 60.8 °F 59.0 °F 94% 29.63 in 10.0 mi West 9.2 mph - N/A   Overcast
8:15 AM 60.8 °F 59.0 °F 94% 29.63 in 10.0 mi West 6.9 mph - N/A   Overcast
8:35 AM 60.8 °F 59.0 °F 94% 29.63 in 10.0 mi West 5.8 mph - N/A   Overcast
8:55 AM 60.8 °F 59.0 °F 94% 29.63 in 10.0 mi West 8.1 mph - N/A   Overcast
9:15 AM 60.8 °F 59.0 °F 94% 29.64 in 10.0 mi WNW 8.1 mph - N/A   Overcast
9:35 AM 60.8 °F 59.0 °F 94% 29.64 in 10.0 mi West 8.1 mph - N/A   Overcast
9:55 AM 62.6 °F 59.0 °F 88% 29.64 in 10.0 mi West 8.1 mph - N/A   Unknown
10:15 AM 62.6 °F 59.0 °F 88% 29.64 in 10.0 mi WNW 11.5 mph - N/A   Overcast
10:35 AM 62.6 °F 57.2 °F 82% 29.64 in 10.0 mi WNW 9.2 mph - N/A   Overcast
10:55 AM 62.6 °F 57.2 °F 82% 29.64 in 10.0 mi WNW 9.2 mph - N/A   Overcast
11:15 AM 62.6 °F 57.2 °F 82% 29.64 in 10.0 mi WNW 5.8 mph - N/A   Overcast
11:35 AM 62.6 °F 57.2 °F 82% 29.65 in 10.0 mi West 6.9 mph - N/A   Overcast
11:55 AM 64.4 °F 55.4 °F 73% 29.64 in 10.0 mi WNW 8.1 mph - N/A   Overcast
12:15 PM 64.4 °F 57.2 °F 77% 29.64 in 10.0 mi WNW 9.2 mph - N/A   Overcast
12:35 PM 64.4 °F 55.4 °F 73% 29.64 in 10.0 mi WNW 10.4 mph 18.4 mph N/A   Overcast
12:55 PM 62.6 °F 55.4 °F 77% 29.64 in 10.0 mi West 11.5 mph 19.6 mph N/A   Overcast
1:15 PM 64.4 °F 55.4 °F 73% 29.64 in 10.0 mi WNW 9.2 mph - N/A   Overcast
1:35 PM 62.6 °F 55.4 °F 77% 29.64 in 7.0 mi WNW 9.2 mph 17.3 mph N/A Rain Light Rain
1:55 PM 66.2 °F 55.4 °F 68% 29.63 in 10.0 mi West 10.4 mph 17.3 mph N/A   Overcast
2:15 PM 68.0 °F 55.4 °F 64% 29.63 in 10.0 mi West 9.2 mph - N/A   Mostly Cloudy
2:35 PM 66.2 °F 53.6 °F 64% 29.63 in 10.0 mi WNW 8.1 mph - N/A   Unknown
2:55 PM 68.0 °F 53.6 °F 60% 29.63 in 10.0 mi WNW 6.9 mph - N/A   Overcast
3:15 PM 68.0 °F 53.6 °F 60% 29.63 in 10.0 mi WNW 8.1 mph 16.1 mph N/A   Overcast
3:35 PM 68.0 °F 53.6 °F 60% 29.64 in 10.0 mi WNW 10.4 mph 16.1 mph N/A   Mostly Cloudy
3:55 PM 68.0 °F 53.6 °F 60% 29.64 in 10.0 mi WNW 8.1 mph - N/A   Overcast
4:15 PM 68.0 °F 53.6 °F 60% 29.64 in 10.0 mi WNW 9.2 mph - N/A   Scattered Clouds
4:35 PM 69.8 °F 53.6 °F 56% 29.64 in 10.0 mi WNW 6.9 mph - N/A   Scattered Clouds
5:15 PM 69.8 °F 53.6 °F 56% 29.64 in 10.0 mi West 3.5 mph - N/A   Scattered Clouds
5:35 PM 68.0 °F 53.6 °F 60% 29.64 in 10.0 mi West 9.2 mph - N/A   Scattered Clouds
5:55 PM 68.0 °F 51.8 °F 56% 29.65 in 10.0 mi West 4.6 mph - N/A   Scattered Clouds
6:15 PM 66.2 °F 51.8 °F 60% 29.65 in 10.0 mi West 3.5 mph - N/A   Scattered Clouds
6:35 PM 64.4 °F 51.8 °F 64% 29.66 in 10.0 mi West 3.5 mph - N/A   Mostly Cloudy
6:55 PM 64.4 °F 51.8 °F 64% 29.67 in 10.0 mi West 3.5 mph - N/A   Scattered Clouds
7:15 PM 62.6 °F 51.8 °F 68% 29.68 in 10.0 mi West 3.5 mph - N/A   Clear
7:35 PM 62.6 °F 51.8 °F 68% 29.69 in 10.0 mi West 4.6 mph - N/A   Clear
7:55 PM 62.6 °F 51.8 °F 68% 29.69 in 10.0 mi WSW 4.6 mph - N/A   Clear
8:15 PM 60.8 °F 51.8 °F 72% 29.70 in 10.0 mi WSW 3.5 mph - N/A   Clear
8:35 PM 60.8 °F 51.8 °F 72% 29.70 in 10.0 mi WSW 3.5 mph - N/A   Clear
8:55 PM 60.8 °F 50.0 °F 68% 29.71 in 10.0 mi WSW 4.6 mph - N/A   Clear
9:15 PM 60.8 °F 50.0 °F 68% 29.71 in 10.0 mi WSW 4.6 mph - N/A   Clear
9:35 PM 60.8 °F 50.0 °F 68% 29.72 in 10.0 mi WSW 4.6 mph - N/A   Clear
9:55 PM 60.8 °F 50.0 °F 68% 29.72 in 10.0 mi WSW 5.8 mph - N/A   Clear
10:15 PM 60.8 °F 50.0 °F 68% 29.72 in 10.0 mi WSW 5.8 mph - N/A   Clear
10:35 PM 60.8 °F 48.2 °F 63% 29.72 in 10.0 mi West 6.9 mph - N/A   Clear
10:55 PM 60.8 °F 48.2 °F 63% 29.73 in 10.0 mi West 5.8 mph - N/A   Clear
11:15 PM 60.8 °F 48.2 °F 63% 29.73 in 10.0 mi West 4.6 mph - N/A   Clear
11:35 PM 60.8 °F 46.4 °F 59% 29.74 in 10.0 mi West 4.6 mph - N/A   Clear
11:55 PM 59.0 °F 46.4 °F 63% 29.74 in 10.0 mi West 4.6 mph - N/A   Clear